User: anonymous   Login
Location: *
(51.1248°S, 108.4023°W)
Time: 10:35:14
(UTC+00:00)
Language:

Feng Yun 1-1 Rocket - Orbit

View from above orbital plane
View from above orbital plane
View from above satellite
View from above satellite

Ground track
Ground track

The orbit data is extracted from the following two-line orbital elements,

1 19468U 88080B   21268.04532955 -.00000270  00000-0 -13979-3 0  9997
2 19468  99.1925 292.9037 0072155  38.3198  15.5329 14.03540082692244
Epoch (UTC): 25 September 2021 01:05:16
Eccentricity: 0.0072155
inclination: 99.1925°
perigee height: 829 km
apogee height: 934 km
right ascension of ascending node: 292.9037°
argument of perigee: 38.3198°
revolutions per day: 14.03540082
mean anomaly at epoch: 15.5329°
orbit number at epoch: 69224

The dashed part of the orbit path shows where the satellite is in the earth's shadow,  

DLR